| time (UTC) | temp F | wind direction | speed MPH | gust MPH | rain 1hr in | rain 24hr in | rain mn in | humidity % | barometer mb |
| 20260505215332 | 76 | 175 | 9.0 | 22.0 | 0.00 | 0.00 | 0.00 | 34 | 1008.1 |
| 20260505214824 | 76 | 178 | 13.0 | 22.0 | 0.00 | 0.00 | 0.00 | 33 | 1008.0 |
| 20260505214320 | 77 | 167 | 14.0 | 22.0 | 0.00 | 0.00 | 0.00 | 34 | 1008.0 |
| 20260505213831 | 77 | 167 | 9.0 | 20.0 | 0.00 | 0.00 | 0.00 | 37 | 1008.1 |
| 20260505213323 | 76 | 158 | 11.0 | 19.0 | 0.00 | 0.00 | 0.00 | 36 | 1008.1 |
| 20260505212816 | 76 | 188 | 9.0 | 19.0 | 0.00 | 0.00 | 0.00 | 36 | 1008.1 |
| 20260505212329 | 77 | 161 | 12.0 | 20.0 | 0.00 | 0.00 | 0.00 | 35 | 1008.0 |
| 20260505211820 | 77 | 171 | 11.0 | 19.0 | 0.00 | 0.00 | 0.00 | 35 | 1008.1 |
| 20260505211312 | 77 | 126 | 13.0 | 20.0 | 0.00 | 0.00 | 0.00 | 34 | 1008.1 |
| 20260505210824 | 77 | 155 | 10.0 | 22.0 | 0.00 | 0.00 | 0.00 | 35 | 1008.0 |
| 20260505210321 | 77 | 157 | 13.0 | 22.0 | 0.00 | 0.00 | 0.00 | 35 | 1008.0 |
| 20260505205831 | 78 | 157 | 9.0 | 21.0 | 0.00 | 0.00 | 0.00 | 36 | 1007.9 |
| 20260505205322 | 78 | 150 | 10.0 | 20.0 | 0.00 | 0.00 | 0.00 | 35 | 1007.8 |
| 20260505204815 | 77 | 178 | 7.0 | 19.0 | 0.00 | 0.00 | 0.00 | 36 | 1007.9 |
| 20260505204327 | 77 | 181 | 11.0 | 19.0 | 0.00 | 0.00 | 0.00 | 36 | 1007.9 |
| 20260505203818 | 77 | 199 | 7.0 | 15.0 | 0.00 | 0.00 | 0.00 | 36 | 1008.0 |
| 20260505203331 | 77 | 182 | 6.0 | 17.0 | 0.00 | 0.00 | 0.00 | 36 | 1008.1 |
| 20260505202823 | 77 | 182 | 9.0 | 26.0 | 0.00 | 0.00 | 0.00 | 36 | 1008.1 |
| 20260505202336 | 77 | 171 | 14.0 | 26.0 | 0.00 | 0.00 | 0.00 | 34 | 1008.2 |
| 20260505201831 | 78 | 173 | 13.0 | 21.0 | 0.00 | 0.00 | 0.00 | 35 | 1008.1 |
| 20260505201323 | 77 | 198 | 12.0 | 21.0 | 0.00 | 0.00 | 0.00 | 35 | 1008.0 |
| 20260505200816 | 77 | 162 | 11.0 | 23.0 | 0.00 | 0.00 | 0.00 | 37 | 1008.0 |
| 20260505200328 | 77 | 181 | 13.0 | 23.0 | 0.00 | 0.00 | 0.00 | 35 | 1008.1 |
| 20260505195817 | 78 | 175 | 8.0 | 18.0 | 0.00 | 0.00 | 0.00 | 36 | 1008.2 |
| 20260505195329 | 79 | 200 | 11.0 | 19.0 | 0.00 | 0.00 | 0.00 | 35 | 1008.2 |
| 20260505194821 | 79 | 175 | 9.0 | 19.0 | 0.00 | 0.00 | 0.00 | 35 | 1008.1 |
| 20260505194313 | 79 | 182 | 8.0 | 19.0 | 0.00 | 0.00 | 0.00 | 36 | 1008.3 |
| 20260505193846 | 79 | 169 | 11.0 | 21.0 | 0.00 | 0.00 | 0.00 | 34 | 1008.2 |
| 20260505193321 | 79 | 157 | 11.0 | 21.0 | 0.00 | 0.00 | 0.00 | 33 | 1008.4 |
| 20260505192813 | 80 | 177 | 14.0 | 23.0 | 0.00 | 0.00 | 0.00 | 33 | 1008.3 |
| 20260505192346 | 80 | 153 | 8.0 | 24.0 | 0.00 | 0.00 | 0.00 | 38 | 1008.3 |
| 20260505191816 | 80 | 155 | 14.0 | 24.0 | 0.00 | 0.00 | 0.00 | 34 | 1008.3 |
| 20260505191329 | 80 | 146 | 8.0 | 21.0 | 0.00 | 0.00 | 0.00 | 36 | 1008.3 |
| 20260505190820 | 80 | 178 | 9.0 | 16.0 | 0.00 | 0.00 | 0.00 | 34 | 1008.4 |
| 20260505190353 | 80 | 186 | 10.0 | 16.0 | 0.00 | 0.00 | 0.00 | 36 | 1008.6 |
| 20260505185821 | 80 | 173 | 7.0 | 14.0 | 0.00 | 0.00 | 0.00 | 37 | 1008.7 |
| 20260505185313 | 79 | 138 | 8.0 | 19.0 | 0.00 | 0.00 | 0.00 | 36 | 1008.8 |
| 20260505184831 | 80 | 166 | 11.0 | 21.0 | 0.00 | 0.00 | 0.00 | 35 | 1008.8 |
| 20260505184322 | 80 | 157 | 7.0 | 19.0 | 0.00 | 0.00 | 0.00 | 38 | 1008.9 |
| 20260505183815 | 80 | 189 | 10.0 | 19.0 | 0.00 | 0.00 | 0.00 | 37 | 1008.9 |
| 20260505183328 | 79 | 171 | 9.0 | 17.0 | 0.00 | 0.00 | 0.00 | 39 | 1008.8 |
| 20260505182840 | 79 | 186 | 8.0 | 18.0 | 0.00 | 0.00 | 0.00 | 37 | 1008.9 |
| 20260505182331 | 78 | 171 | 9.0 | 16.0 | 0.00 | 0.00 | 0.00 | 40 | 1009.0 |
| 20260505181823 | 78 | 180 | 8.0 | 18.0 | 0.00 | 0.00 | 0.00 | 39 | 1009.1 |
| 20260505181315 | 78 | 154 | 9.0 | 16.0 | 0.00 | 0.00 | 0.00 | 37 | 1009.2 |
| 20260505180827 | 79 | 188 | 9.0 | 11.0 | 0.00 | 0.00 | 0.00 | 37 | 1009.3 |
| 20260505180323 | 80 | 200 | 7.0 | 15.0 | 0.00 | 0.00 | 0.00 | 39 | 1009.4 |
| 20260505175833 | 80 | 182 | 8.0 | 15.0 | 0.00 | 0.00 | 0.00 | 35 | 1009.3 |
| 20260505175326 | 80 | 145 | 8.0 | 15.0 | 0.00 | 0.00 | 0.00 | 31 | 1009.2 |
| 20260505174817 | 80 | 188 | 8.0 | 14.0 | 0.00 | 0.00 | 0.00 | 35 | 1009.3 |
| 20260505174328 | 79 | 138 | 9.0 | 15.0 | 0.00 | 0.00 | 0.00 | 33 | 1009.3 |
| 20260505173820 | 80 | 200 | 9.0 | 15.0 | 0.00 | 0.00 | 0.00 | 31 | 1009.5 |
| 20260505173332 | 80 | 161 | 7.0 | 14.0 | 0.00 | 0.00 | 0.00 | 35 | 1009.6 |
| 20260505172843 | 79 | 171 | 7.0 | 16.0 | 0.00 | 0.00 | 0.00 | 33 | 1009.7 |
| 20260505172319 | 80 | 190 | 7.0 | 14.0 | 0.00 | 0.00 | 0.00 | 36 | 1009.8 |
| 20260505171830 | 79 | 165 | 4.0 | 9.0 | 0.00 | 0.00 | 0.00 | 38 | 1009.8 |
| 20260505171322 | 79 | 186 | 4.0 | 13.0 | 0.00 | 0.00 | 0.00 | 35 | 1009.9 |
| 20260505170835 | 79 | 154 | 7.0 | 13.0 | 0.00 | 0.00 | 0.00 | 36 | 1010.0 |
| 20260505170326 | 79 | 170 | 7.0 | 11.0 | 0.00 | 0.00 | 0.00 | 40 | 1010.1 |
| 20260505165815 | 79 | 165 | 5.0 | 14.0 | 0.00 | 0.00 | 0.00 | 41 | 1010.1 |
| 20260505165348 | 78 | 193 | 6.0 | 14.0 | 0.00 | 0.00 | 0.00 | 37 | 1010.2 |
| 20260505164839 | 78 | 168 | 6.0 | 11.0 | 0.00 | 0.00 | 0.00 | 37 | 1010.3 |
| 20260505164350 | 78 | 140 | 6.0 | 12.0 | 0.00 | 0.00 | 0.00 | 42 | 1010.4 |
| 20260505163821 | 78 | 181 | 7.0 | 14.0 | 0.00 | 0.00 | 0.00 | 40 | 1010.5 |
| 20260505163353 | 78 | 167 | 8.0 | 14.0 | 0.00 | 0.00 | 0.00 | 36 | 1010.5 |
| 20260505162823 | 78 | 157 | 5.0 | 10.0 | 0.00 | 0.00 | 0.00 | 38 | 1010.4 |
| 20260505162340 | 77 | 172 | 6.0 | 10.0 | 0.00 | 0.00 | 0.00 | 41 | 1010.5 |
| 20260505161851 | 77 | 93 | 5.0 | 9.0 | 0.00 | 0.00 | 0.00 | 43 | 1010.5 |
| 20260505161322 | 77 | 157 | 5.0 | 11.0 | 0.00 | 0.00 | 0.00 | 43 | 1010.6 |
| 20260505160814 | 76 | 178 | 6.0 | 11.0 | 0.00 | 0.00 | 0.00 | 41 | 1010.7 |
| 20260505160326 | 76 | 181 | 4.0 | 12.0 | 0.00 | 0.00 | 0.00 | 40 | 1010.7 |
| 20260505153319 | 76 | 142 | 5.0 | 13.0 | 0.00 | 0.00 | 0.00 | 41 | 1011.1 |
| 20260505152853 | 76 | 147 | 6.0 | 13.0 | 0.00 | 0.00 | 0.00 | 40 | 1011.1 |
| 20260505152324 | 76 | 167 | 8.0 | 12.0 | 0.00 | 0.00 | 0.00 | 45 | 1011.2 |
| 20260505151817 | 75 | 148 | 8.0 | 10.0 | 0.00 | 0.00 | 0.00 | 41 | 1011.1 |
| 20260505151330 | 75 | 172 | 8.0 | 15.0 | 0.00 | 0.00 | 0.00 | 41 | 1011.3 |
| 20260505150822 | 75 | 158 | 7.0 | 14.0 | 0.00 | 0.00 | 0.00 | 43 | 1011.2 |
| 20260505150314 | 75 | 192 | 9.0 | 14.0 | 0.00 | 0.00 | 0.00 | 43 | 1011.1 |
| 20260505140326 | 73 | 161 | 5.0 | 9.0 | 0.00 | 0.00 | 0.00 | 48 | 1010.7 |
| 20260505124823 | 69 | 182 | 6.0 | 12.0 | 0.00 | 0.00 | 0.00 | 54 | 1011.2 |
| 20260505124336 | 68 | 180 | 6.0 | 12.0 | 0.00 | 0.00 | 0.00 | 53 | 1011.2 |
| 20260505123848 | 68 | 140 | 8.0 | 12.0 | 0.00 | 0.00 | 0.00 | 54 | 1011.2 |
| 20260505123319 | 68 | 178 | 6.0 | 10.0 | 0.00 | 0.00 | 0.00 | 54 | 1011.4 |
| 20260505122815 | 67 | 153 | 6.0 | 14.0 | 0.00 | 0.00 | 0.00 | 55 | 1011.4 |
| 20260505122326 | 67 | 170 | 6.0 | 14.0 | 0.00 | 0.00 | 0.00 | 56 | 1011.3 |
| 20260505121818 | 67 | 165 | 7.0 | 11.0 | 0.00 | 0.00 | 0.00 | 56 | 1011.3 |
| 20260505121330 | 66 | 152 | 7.0 | 13.0 | 0.00 | 0.00 | 0.00 | 55 | 1011.3 |
| 20260505120822 | 66 | 186 | 6.0 | 11.0 | 0.00 | 0.00 | 0.00 | 56 | 1011.4 |
| 20260505120314 | 66 | 178 | 7.0 | 11.0 | 0.00 | 0.00 | 0.00 | 57 | 1011.4 |
| 20260505115824 | 65 | 165 | 6.0 | 10.0 | 0.00 | 0.00 | 0.00 | 58 | 1011.5 |
| 20260505115316 | 65 | 172 | 6.0 | 9.0 | 0.00 | 0.00 | 0.00 | 57 | 1011.5 |
| 20260505114831 | 65 | 157 | 5.0 | 10.0 | 0.00 | 0.00 | 0.00 | 57 | 1011.6 |
| 20260505114324 | 64 | 192 | 5.0 | 8.0 | 0.00 | 0.00 | 0.00 | 58 | 1011.5 |
| 20260505113816 | 64 | 163 | 6.0 | 9.0 | 0.00 | 0.00 | 0.00 | 58 | 1011.4 |
| 20260505113328 | 64 | 159 | 5.0 | 8.0 | 0.00 | 0.00 | 0.00 | 57 | 1011.4 |
| 20260505112820 | 64 | 170 | 5.0 | 9.0 | 0.00 | 0.00 | 0.00 | 57 | 1011.3 |
| 20260505112332 | 64 | 167 | 6.0 | 9.0 | 0.00 | 0.00 | 0.00 | 56 | 1011.2 |
| 20260505111844 | 64 | 169 | 6.0 | 9.0 | 0.00 | 0.00 | 0.00 | 55 | 1011.1 |
| 20260505111314 | 64 | 164 | 6.0 | 9.0 | 0.00 | 0.00 | 0.00 | 55 | 1011.0 |
| 20260505110826 | 64 | 186 | 6.0 | 10.0 | 0.00 | 0.00 | 0.00 | 55 | 1010.9 |
| 20260505110322 | 64 | 161 | 5.0 | 10.0 | 0.00 | 0.00 | 0.00 | 54 | 1010.9 |
| 20260505101852 | 65 | 155 | 6.0 | 13.0 | 0.00 | 0.00 | 0.00 | 52 | 1010.3 |
| 20260505101323 | 65 | 175 | 7.0 | 14.0 | 0.00 | 0.00 | 0.00 | 51 | 1010.2 |
| 20260505100814 | 65 | 166 | 6.0 | 14.0 | 0.00 | 0.00 | 0.00 | 51 | 1010.2 |
| 20260505100326 | 65 | 166 | 7.0 | 14.0 | 0.00 | 0.00 | 0.00 | 51 | 1010.1 |
| 20260505095836 | 65 | 175 | 7.0 | 11.0 | 0.00 | 0.00 | 0.00 | 52 | 1010.1 |
| 20260505095327 | 65 | 184 | 6.0 | 11.0 | 0.00 | 0.00 | 0.00 | 52 | 1010.1 |
| 20260505094819 | 65 | 185 | 6.0 | 11.0 | 0.00 | 0.00 | 0.00 | 52 | 1010.1 |
| 20260505094331 | 64 | 169 | 6.0 | 15.0 | 0.00 | 0.00 | 0.00 | 53 | 1010.1 |
| 20260505093827 | 65 | 166 | 4.0 | 15.0 | 0.00 | 0.00 | 0.00 | 53 | 1010.0 |
| 20260505093319 | 64 | 174 | 6.0 | 15.0 | 0.00 | 0.00 | 0.00 | 53 | 1010.0 |
| 20260505092832 | 64 | 175 | 7.0 | 13.0 | 0.00 | 0.00 | 0.00 | 53 | 1010.1 |
| 20260505092323 | 64 | 186 | 7.0 | 11.0 | 0.00 | 0.00 | 0.00 | 53 | 1010.0 |
| 20260505091835 | 64 | 159 | 7.0 | 15.0 | 0.00 | 0.00 | 0.00 | 54 | 1010.0 |
| 20260505091326 | 64 | 177 | 6.0 | 15.0 | 0.00 | 0.00 | 0.00 | 55 | 1010.0 |
| 20260505090818 | 64 | 178 | 7.0 | 11.0 | 0.00 | 0.00 | 0.00 | 55 | 1010.0 |
| 20260505090350 | 63 | 167 | 6.0 | 12.0 | 0.00 | 0.00 | 0.00 | 55 | 1010.0 |
| 20260505085820 | 63 | 161 | 6.0 | 12.0 | 0.00 | 0.00 | 0.00 | 55 | 1009.9 |
| 20260505085314 | 63 | 163 | 5.0 | 12.0 | 0.00 | 0.00 | 0.00 | 56 | 1009.9 |
| 20260505084847 | 63 | 188 | 5.0 | 12.0 | 0.00 | 0.00 | 0.00 | 56 | 1009.9 |
| 20260505084318 | 63 | 153 | 5.0 | 11.0 | 0.00 | 0.00 | 0.00 | 56 | 1010.0 |
| 20260505083830 | 63 | 184 | 4.0 | 9.0 | 0.00 | 0.00 | 0.00 | 56 | 1010.0 |
| 20260505083323 | 63 | 172 | 5.0 | 9.0 | 0.00 | 0.00 | 0.00 | 56 | 1009.9 |
| 20260505082814 | 63 | 172 | 6.0 | 10.0 | 0.00 | 0.00 | 0.00 | 56 | 1009.8 |
| 20260505082326 | 63 | 179 | 6.0 | 11.0 | 0.00 | 0.00 | 0.00 | 56 | 1009.8 |
| 20260505081818 | 64 | 165 | 4.0 | 8.0 | 0.00 | 0.00 | 0.00 | 56 | 1009.8 |
| 20260505081330 | 64 | 175 | 4.0 | 7.0 | 0.00 | 0.00 | 0.00 | 55 | 1009.9 |
| 20260505080827 | 64 | 175 | 3.0 | 9.0 | 0.00 | 0.00 | 0.00 | 55 | 1009.8 |
| 20260505080319 | 64 | 178 | 5.0 | 10.0 | 0.00 | 0.00 | 0.00 | 54 | 1009.8 |
| 20260505075829 | 65 | 171 | 6.0 | 9.0 | 0.00 | 0.00 | 0.00 | 54 | 1009.8 |
| 20260505075321 | 65 | 172 | 6.0 | 8.0 | 0.00 | 0.00 | 0.00 | 54 | 1009.7 |
| 20260505074813 | 65 | 163 | 6.0 | 9.0 | 0.00 | 0.00 | 0.00 | 53 | 1009.7 |
| 20260505074325 | 65 | 180 | 7.0 | 11.0 | 0.00 | 0.00 | 0.00 | 53 | 1009.6 |
| 20260505073817 | 65 | 176 | 6.0 | 11.0 | 0.00 | 0.00 | 0.00 | 53 | 1009.5 |
| 20260505073329 | 65 | 169 | 6.0 | 10.0 | 0.00 | 0.00 | 0.00 | 54 | 1009.5 |
| 20260505072824 | 64 | 166 | 8.0 | 10.0 | 0.00 | 0.00 | 0.00 | 54 | 1009.4 |
| 20260505072336 | 64 | 192 | 6.0 | 10.0 | 0.00 | 0.00 | 0.00 | 55 | 1009.3 |
| 20260505071827 | 63 | 173 | 6.0 | 11.0 | 0.00 | 0.00 | 0.00 | 56 | 1009.4 |
| 20260505071318 | 63 | 184 | 7.0 | 10.0 | 0.00 | 0.00 | 0.00 | 58 | 1009.4 |
| 20260505070830 | 62 | 169 | 6.0 | 9.0 | 0.00 | 0.00 | 0.00 | 59 | 1009.4 |
| 20260505070322 | 62 | 174 | 6.0 | 9.0 | 0.00 | 0.00 | 0.00 | 60 | 1009.4 |
| 20260505065852 | 62 | 178 | 5.0 | 10.0 | 0.00 | 0.00 | 0.00 | 61 | 1009.5 |
| 20260505065322 | 61 | 189 | 6.0 | 10.0 | 0.00 | 0.00 | 0.00 | 61 | 1009.6 |
| 20260505064814 | 61 | 187 | 5.0 | 9.0 | 0.00 | 0.00 | 0.00 | 62 | 1009.6 |
| 20260505064346 | 61 | 178 | 5.0 | 8.0 | 0.00 | 0.00 | 0.00 | 62 | 1009.6 |
| 20260505063821 | 61 | 182 | 5.0 | 8.0 | 0.00 | 0.00 | 0.00 | 62 | 1009.6 |
| 20260505063353 | 62 | 170 | 4.0 | 8.0 | 0.00 | 0.00 | 0.00 | 61 | 1009.6 |
| 20260505062824 | 62 | 174 | 5.0 | 8.0 | 0.00 | 0.00 | 0.00 | 60 | 1009.6 |
| 20260505062316 | 62 | 172 | 5.0 | 8.0 | 0.00 | 0.00 | 0.00 | 60 | 1009.6 |
| 20260505061829 | 63 | 170 | 5.0 | 9.0 | 0.00 | 0.00 | 0.00 | 59 | 1009.6 |
| 20260505061320 | 63 | 187 | 6.0 | 9.0 | 0.00 | 0.00 | 0.00 | 59 | 1009.6 |
| 20260505060853 | 63 | 175 | 6.0 | 10.0 | 0.00 | 0.00 | 0.00 | 59 | 1009.7 |
| 20260505060324 | 63 | 183 | 6.0 | 10.0 | 0.00 | 0.00 | 0.00 | 59 | 1009.7 |
| 20260505055853 | 63 | 174 | 5.0 | 10.0 | 0.00 | 0.00 | 0.00 | 59 | 1009.7 |
| 20260505055324 | 63 | 180 | 6.0 | 11.0 | 0.00 | 0.00 | 0.00 | 59 | 1009.7 |
| 20260505054820 | 63 | 156 | 7.0 | 11.0 | 0.00 | 0.00 | 0.00 | 59 | 1009.8 |
| 20260505054332 | 63 | 172 | 7.0 | 12.0 | 0.00 | 0.00 | 0.00 | 59 | 1009.8 |
| 20260505053844 | 63 | 175 | 7.0 | 12.0 | 0.00 | 0.00 | 0.00 | 59 | 1009.7 |
| 20260505053314 | 63 | 167 | 7.0 | 14.0 | 0.00 | 0.00 | 0.00 | 59 | 1009.7 |
| 20260505052846 | 63 | 162 | 8.0 | 15.0 | 0.00 | 0.00 | 0.00 | 59 | 1009.6 |
| 20260505052317 | 63 | 190 | 7.0 | 12.0 | 0.00 | 0.00 | 0.00 | 59 | 1009.7 |
| 20260505051849 | 63 | 194 | 6.0 | 11.0 | 0.00 | 0.00 | 0.00 | 58 | 1009.6 |
| 20260505051321 | 63 | 163 | 6.0 | 10.0 | 0.00 | 0.00 | 0.00 | 58 | 1009.7 |
| 20260505050833 | 63 | 171 | 6.0 | 9.0 | 0.00 | 0.00 | 0.00 | 58 | 1009.6 |
| 20260505050324 | 63 | 182 | 5.0 | 10.0 | 0.00 | 0.00 | 0.00 | 58 | 1009.6 |
| 20260505041322 | 62 | 171 | 4.0 | 6.0 | 0.00 | 0.00 | 0.00 | 59 | 1009.8 |
| 20260505040818 | 62 | 170 | 3.0 | 5.0 | 0.00 | 0.00 | 0.00 | 59 | 1009.8 |
| 20260505040330 | 62 | 178 | 4.0 | 5.0 | 0.00 | 0.00 | 0.00 | 59 | 1009.8 |
| 20260505035819 | 63 | 159 | 3.0 | 8.0 | 0.00 | 0.00 | 0.00 | 58 | 1009.8 |
| 20260505035332 | 63 | 167 | 5.0 | 8.0 | 0.00 | 0.00 | 0.00 | 58 | 1009.9 |
| 20260505034823 | 63 | 172 | 5.0 | 7.0 | 0.00 | 0.00 | 0.00 | 58 | 1009.9 |
| 20260505034315 | 63 | 163 | 4.0 | 8.0 | 0.00 | 0.00 | 0.00 | 59 | 1009.8 |
| 20260505033848 | 63 | 169 | 4.0 | 8.0 | 0.00 | 0.00 | 0.00 | 59 | 1009.9 |
| 20260505033340 | 63 | 171 | 4.0 | 7.0 | 0.00 | 0.00 | 0.00 | 59 | 1009.9 |
| 20260505032831 | 63 | 156 | 2.0 | 7.0 | 0.00 | 0.00 | 0.00 | 59 | 1009.9 |
| 20260505032322 | 63 | 175 | 5.0 | 8.0 | 0.00 | 0.00 | 0.00 | 59 | 1009.9 |
| 20260505031818 | 63 | 182 | 5.0 | 8.0 | 0.00 | 0.00 | 0.00 | 59 | 1009.9 |
| 20260505031330 | 63 | 175 | 4.0 | 8.0 | 0.00 | 0.00 | 0.00 | 60 | 1009.9 |
| 20260505030821 | 63 | 167 | 5.0 | 8.0 | 0.00 | 0.00 | 0.00 | 60 | 1009.9 |
| 20260505030332 | 62 | 161 | 4.0 | 7.0 | 0.00 | 0.00 | 0.00 | 61 | 1010.0 |
| 20260505025823 | 62 | 168 | 4.0 | 7.0 | 0.00 | 0.00 | 0.00 | 62 | 1010.1 |
| 20260505025316 | 62 | 179 | 2.0 | 5.0 | 0.00 | 0.00 | 0.00 | 61 | 1010.1 |
| 20260505024828 | 62 | 169 | 4.0 | 6.0 | 0.00 | 0.00 | 0.00 | 61 | 1010.1 |
| 20260505024320 | 63 | 162 | 4.0 | 7.0 | 0.00 | 0.00 | 0.00 | 60 | 1010.2 |
| 20260505023816 | 63 | 171 | 4.0 | 7.0 | 0.00 | 0.00 | 0.00 | 59 | 1010.2 |
| 20260505023328 | 63 | 182 | 5.0 | 7.0 | 0.00 | 0.00 | 0.00 | 59 | 1010.2 |
| 20260505022819 | 64 | 173 | 4.0 | 7.0 | 0.00 | 0.00 | 0.00 | 58 | 1010.3 |
| 20260505022352 | 64 | 179 | 4.0 | 7.0 | 0.00 | 0.00 | 0.00 | 57 | 1010.3 |
| 20260505021823 | 64 | 180 | 4.0 | 7.0 | 0.00 | 0.00 | 0.00 | 57 | 1010.2 |
| 20260505021315 | 64 | 178 | 5.0 | 7.0 | 0.00 | 0.00 | 0.00 | 57 | 1010.1 |
| 20260505020827 | 64 | 166 | 3.0 | 7.0 | 0.00 | 0.00 | 0.00 | 57 | 1010.1 |
| 20260505020339 | 64 | 169 | 4.0 | 7.0 | 0.00 | 0.00 | 0.00 | 57 | 1010.2 |
| 20260505015829 | 64 | 176 | 2.0 | 7.0 | 0.00 | 0.00 | 0.00 | 56 | 1010.1 |
| 20260505015326 | 64 | 163 | 3.0 | 7.0 | 0.00 | 0.00 | 0.00 | 56 | 1010.1 |
| 20260505014818 | 65 | 186 | 4.0 | 6.0 | 0.00 | 0.00 | 0.00 | 55 | 1010.1 |
| 20260505014330 | 65 | 173 | 3.0 | 8.0 | 0.00 | 0.00 | 0.00 | 55 | 1010.1 |
| 20260505013821 | 65 | 160 | 4.0 | 8.0 | 0.00 | 0.00 | 0.00 | 55 | 1009.9 |
| 20260505013314 | 65 | 188 | 3.0 | 6.0 | 0.00 | 0.00 | 0.00 | 54 | 1009.9 |
| 20260505012826 | 65 | 177 | 3.0 | 6.0 | 0.00 | 0.00 | 0.00 | 54 | 1009.9 |
| 20260505012317 | 65 | 176 | 3.0 | 7.0 | 0.00 | 0.00 | 0.00 | 53 | 1009.8 |
| 20260505011829 | 65 | 175 | 3.0 | 7.0 | 0.00 | 0.00 | 0.00 | 53 | 1009.9 |
| 20260505011341 | 65 | 171 | 2.0 | 5.0 | 0.00 | 0.00 | 0.00 | 54 | 1009.7 |
| 20260505010815 | 65 | 173 | 3.0 | 7.0 | 0.00 | 0.00 | 0.00 | 54 | 1009.7 |
| 20260505010327 | 65 | 181 | 3.0 | 8.0 | 0.00 | 0.00 | 0.00 | 53 | 1009.5 |
| 20260505005817 | 66 | 174 | 3.0 | 5.0 | 0.00 | 0.00 | 0.00 | 53 | 1009.4 |
| 20260505005330 | 66 | 177 | 3.0 | 4.0 | 0.00 | 0.00 | 0.00 | 52 | 1009.4 |
| 20260505004822 | 67 | 173 | 2.0 | 5.0 | 0.00 | 0.00 | 0.00 | 51 | 1009.3 |
| 20260505004313 | 67 | 168 | 3.0 | 6.0 | 0.00 | 0.00 | 0.00 | 50 | 1009.2 |
| 20260505003826 | 68 | 174 | 3.0 | 6.0 | 0.00 | 0.00 | 0.00 | 49 | 1009.1 |
| 20260505003318 | 68 | 180 | 5.0 | 7.0 | 0.00 | 0.00 | 0.00 | 47 | 1009.1 |
| 20260505002834 | 68 | 180 | 4.0 | 7.0 | 0.00 | 0.00 | 0.00 | 48 | 1009.1 |
| 20260505002325 | 68 | 182 | 4.0 | 7.0 | 0.00 | 0.00 | 0.00 | 48 | 1009.1 |
| 20260505001837 | 68 | 169 | 4.0 | 7.0 | 0.00 | 0.00 | 0.00 | 48 | 1009.0 |
| 20260505001328 | 68 | 186 | 4.0 | 8.0 | 0.00 | 0.00 | 0.00 | 48 | 1008.9 |
| 20260505000819 | 68 | 162 | 5.0 | 9.0 | 0.00 | 0.00 | 0.00 | 47 | 1008.9 |
| 20260505000330 | 68 | 169 | 2.0 | 13.0 | 0.00 | 0.00 | 0.00 | 49 | 1008.9 |
| 20260504235820 | 68 | 138 | 5.0 | 13.0 | 0.00 | 0.00 | 0.00 | 49 | 1008.7 |
| 20260504235332 | 68 | 152 | 2.0 | 6.0 | 0.00 | 0.00 | 0.00 | 51 | 1008.6 |
| 20260504234824 | 67 | 175 | 4.0 | 7.0 | 0.00 | 0.00 | 0.00 | 51 | 1008.8 |
| 20260504234320 | 68 | 221 | 3.0 | 7.0 | 0.00 | 0.00 | 0.00 | 52 | 1008.7 |
| 20260504233832 | 68 | 179 | 2.0 | 7.0 | 0.00 | 0.00 | 0.00 | 52 | 1008.6 |
| 20260504233345 | 68 | 166 | 3.0 | 8.0 | 0.00 | 0.00 | 0.00 | 51 | 1008.7 |
| 20260504232815 | 68 | 192 | 5.0 | 8.0 | 0.00 | 0.00 | 0.00 | 51 | 1008.6 |
| 20260504232327 | 68 | 173 | 4.0 | 8.0 | 0.00 | 0.00 | 0.00 | 51 | 1008.6 |
| 20260504231819 | 69 | 155 | 5.0 | 10.0 | 0.00 | 0.00 | 0.00 | 50 | 1008.8 |
| 20260504231332 | 70 | 173 | 6.0 | 10.0 | 0.00 | 0.00 | 0.00 | 49 | 1008.8 |
| 20260504230824 | 71 | 165 | 5.0 | 10.0 | 0.00 | 0.00 | 0.00 | 47 | 1008.8 |
| 20260504230316 | 71 | 151 | 2.0 | 15.0 | 0.00 | 0.00 | 0.00 | 43 | 1008.5 |
| 20260504225830 | 72 | 201 | 2.0 | 9.0 | 0.00 | 0.00 | 0.00 | 43 | 1008.5 |
| 20260504225321 | 72 | 182 | 4.0 | 9.0 | 0.00 | 0.00 | 0.00 | 42 | 1008.5 |
| 20260504224813 | 72 | 180 | 3.0 | 9.0 | 0.00 | 0.00 | 0.00 | 45 | 1008.6 |
| 20260504224324 | 72 | 213 | 3.0 | 7.0 | 0.00 | 0.00 | 0.00 | 42 | 1008.6 |
| 20260504223816 | 72 | 176 | 2.0 | 7.0 | 0.00 | 0.00 | 0.00 | 43 | 1008.6 |
| 20260504223328 | 72 | 170 | 3.0 | 10.0 | 0.00 | 0.00 | 0.00 | 42 | 1008.6 |
| 20260504222819 | 72 | 148 | 4.0 | 10.0 | 0.00 | 0.00 | 0.00 | 42 | 1008.5 |
| 20260504222352 | 72 | 157 | 3.0 | 9.0 | 0.00 | 0.00 | 0.00 | 41 | 1008.5 |
| 20260504221822 | 73 | 159 | 3.0 | 11.0 | 0.00 | 0.00 | 0.00 | 42 | 1008.6 |
| 20260504221317 | 73 | 160 | 4.0 | 14.0 | 0.00 | 0.00 | 0.00 | 41 | 1008.6 |
| 20260504220830 | 73 | 157 | 6.0 | 16.0 | 0.00 | 0.00 | 0.00 | 41 | 1008.5 |
| 20260504220322 | 73 | 123 | 2.0 | 9.0 | 0.00 | 0.00 | 0.00 | 41 | 1008.5 |
| 20260504215832 | 73 | 145 | 3.0 | 12.0 | 0.00 | 0.00 | 0.00 | 40 | 1008.4 |